Regional Weather Roundup
Issued by NWS

Home | Current Version | Previous Version | Text Only | Print | Product List | Glossary Off
Versions: 1 2 3 4 5 6 7 8 9 10 11 12 13 14 15 16 17 18 19 20 21 22 23 24 25 26 27 28 29 30 31 32 33 34 35 36 37 38 39 40 41 42 43 44 45 46 47 48 49 50

561
ASUS44 KJAN 180703
RWRMS

MISSISSIPPI HOURLY WEATHER ROUNDUP
NATIONAL WEATHER SERVICE JACKSON MS
200 AM CDT SAT APR 18 2015

NOTE: "FAIR: INDICATES FEW OR NO CLOUDS BELOW 12,000 FEET WITH NO
SIGNIFICANT WEATHER AND/OR OBSTRUCTIONS TO VISIBILITY.

MSZ001>002-007>008-010>013-018>021-025>028-034>036-180800-
NORTHWEST MISSISSIPPI

CITY           SKY/WX    TMP DP  RH WIND       PRES   REMARKS
CLARKSDALE       N/A     64  64 100 CALM      30.00S
CLEVELAND      FAIR      64  64 100 E5        29.98S
GREENWOOD      MOCLDY    63  60  90 CALM      29.98S
GREENVILLE     CLOUDY    67  63  87 E5        29.96F
OLIVE BRANCH   CLEAR     61 N/A N/A CALM      29.98F
OXFORD         FAIR      59  59 100 CALM      30.01R
TUNICA         CLOUDY    63  61  94 CALM      30.00S
$$

MSZ003>006-009-014>017-022>024-029>033-037>039-180800-
NORTHEAST MISSISSIPPI

CITY           SKY/WX    TMP DP  RH WIND       PRES   REMARKS
COLUMBUS AFB   CLOUDY    60  60 100 N3        29.96F
CORINTH        FAIR      61  59  94 CALM      29.97F FOG
GOLDN TRIANGLE MOCLDY    63  59  88 NE5       29.97S
STARKVILLE     FAIR      59  59 100 CALM      29.97F
TUPELO         CLOUDY    60  58  92 CALM      29.98F
$$

MSZ040-058-180800-
CENTRAL MISSISSIPPI

CITY           SKY/WX    TMP DP  RH WIND       PRES   REMARKS
JACKSON INTL   CLOUDY    66  63  90 E7        29.95F
JACKSON HAWKNS CLOUDY    66  63  90 E6        29.95F
MERIDIAN KEY   CLOUDY    65  62  90 NE5       29.97F
MERIDIAN NAS   CLOUDY    65  62  90 NE3       29.97F
RAYMOND        CLOUDY    66  63  88 E5        29.94F
VICKSBURG      CLOUDY    67  64  90 E5        29.94F
$$

MSZ059>079-180800-
SOUTH MISSISSIPPI

CITY           SKY/WX    TMP DP  RH WIND       PRES   REMARKS
BROOKHAVEN     CLOUDY    66  66 100 CALM      29.95F
HATTIESBURG    CLOUDY    67  65  93 NE5       29.95F
MCCOMB         CLOUDY    68  66  93 CALM      29.94S
NATCHEZ        CLOUDY    66  63  88 S3        29.95R
PINE BELT      CLOUDY    64  61  88 E5        29.96S
$$

MSZ080>082-180800-
COASTAL MISSISSIPPI

CITY           SKY/WX    TMP DP  RH WIND       PRES   REMARKS
BILOXI         CLOUDY    70  70 100 NE7       29.89F
PASCAGOULA     MOCLDY    69  68  96 NE3       29.92F
GULFPORT       CLOUDY    70  68  93 NE6       29.89F
$$



USA.gov is the U.S. government's official web portal to all federal, state and local government web resources and services.